VJC601 VVCR-VVTS

Flight info

Callsign VJC601
Flight time 0h 36m
Altitude 22000
Route LKH W15 VETOM VETOM5A
Aircraft A21N/M-SDE2E3FGHIRWXY/LB1

Departure

Time 2026-04-27 11:41
Airport Cam Ranh International Airport / Cam Ranh Air Base (VVCR)

Arrival

Time 2026-04-27 12:17
Airport Tan Son Nhat International Airport (VVTS)
Time Latitude Longitude Altitude Speed Heading
2026-04-27 11:23 12.00755 109.21685 58 ft 0 kts 289°
2026-04-27 11:34 12.00748 109.21706 50 ft 4 kts 289°
2026-04-27 11:34 12.00739 109.21732 53 ft 4 kts 289°
2026-04-27 11:34 12.00730 109.21758 52 ft 4 kts 289°
2026-04-27 11:34 12.00722 109.21782 54 ft 4 kts 294°
2026-04-27 11:35 12.00710 109.21807 50 ft 4 kts 301°
2026-04-27 11:35 12.00700 109.21824 50 ft 0 kts 303°
2026-04-27 11:37 12.00701 109.21823 51 ft 1 kts 309°
2026-04-27 11:37 12.00717 109.21825 53 ft 4 kts 31°
2026-04-27 11:37 12.00759 109.21849 55 ft 10 kts 21°
2026-04-27 11:38 12.00826 109.21882 58 ft 12 kts 58°
2026-04-27 11:38 12.00819 109.21969 58 ft 13 kts 105°
2026-04-27 11:38 12.00835 109.22054 58 ft 15 kts 22°
2026-04-27 11:38 12.00937 109.22090 53 ft 16 kts 18°
2026-04-27 11:39 12.01009 109.22114 58 ft 17 kts 18°
2026-04-27 11:39 12.01125 109.22154 56 ft 18 kts 24°
2026-04-27 11:39 12.01145 109.22266 56 ft 19 kts 109°
2026-04-27 11:39 12.01076 109.22376 60 ft 21 kts 206°
2026-04-27 11:40 12.00864 109.22294 59 ft 61 kts 198°
2026-04-27 11:40 12.00245 109.22084 58 ft 123 kts 199°
2026-04-27 11:40 11.99263 109.21742 59 ft 170 kts 198°
2026-04-27 11:40 11.98151 109.21330 552 ft 169 kts 196°
2026-04-27 11:41 11.97032 109.20965 1079 ft 169 kts 197°
2026-04-27 11:41 11.95442 109.20429 1537 ft 194 kts 198°
2026-04-27 11:41 11.94554 109.20119 1836 ft 205 kts 198°
2026-04-27 11:41 11.93158 109.19633 2347 ft 219 kts 198°
2026-04-27 11:42 11.91641 109.19106 2709 ft 242 kts 198°
2026-04-27 11:42 11.89975 109.18570 3178 ft 259 kts 191°
2026-04-27 11:42 11.88152 109.18531 3763 ft 268 kts 167°
2026-04-27 11:42 11.86466 109.19332 4482 ft 271 kts 140°
2026-04-27 11:43 11.85298 109.20833 5192 ft 274 kts 115°
2026-04-27 11:43 11.84652 109.22646 5927 ft 277 kts 108°
2026-04-27 11:43 11.84119 109.24548 6637 ft 281 kts 102°
2026-04-27 11:43 11.84066 109.26540 7290 ft 285 kts 79°
2026-04-27 11:44 11.84799 109.28415 7941 ft 288 kts 55°
2026-04-27 11:44 11.86228 109.29844 8597 ft 291 kts 31°
2026-04-27 11:44 11.88092 109.30654 9272 ft 293 kts 17°
2026-04-27 11:44 11.90050 109.31261 9936 ft 296 kts 16°
2026-04-27 11:45 11.92032 109.31872 10536 ft 299 kts 17°
2026-04-27 11:45 11.94026 109.32510 11132 ft 302 kts 17°
2026-04-27 11:45 11.96054 109.33120 11734 ft 306 kts 11°
2026-04-27 11:45 11.98181 109.33202 12308 ft 309 kts 350°
2026-04-27 11:46 12.00200 109.32476 12872 ft 311 kts 328°
2026-04-27 11:46 12.01807 109.31008 13443 ft 313 kts 306°
2026-04-27 11:46 12.02837 109.29052 13988 ft 315 kts 292°
2026-04-27 11:46 12.03655 109.26965 14528 ft 317 kts 291°
2026-04-27 11:47 12.04337 109.24816 15054 ft 320 kts 280°
2026-04-27 11:47 12.04408 109.22550 15520 ft 324 kts 261°
2026-04-27 11:47 12.03743 109.20324 15781 ft 335 kts 247°
2026-04-27 11:47 12.02777 109.18099 15991 ft 350 kts 245°
2026-04-27 11:48 12.01762 109.15785 16185 ft 364 kts 246°
2026-04-27 11:48 12.00733 109.13373 16373 ft 378 kts 246°
2026-04-27 11:48 11.99689 109.10868 16678 ft 387 kts 247°
2026-04-27 11:48 11.98638 109.08320 17148 ft 391 kts 247°
2026-04-27 11:49 11.97583 109.05752 17651 ft 394 kts 247°
2026-04-27 11:49 11.96522 109.03164 18143 ft 397 kts 247°
2026-04-27 11:49 11.95453 109.00554 18563 ft 400 kts 247°
2026-04-27 11:49 11.94390 108.97962 19003 ft 402 kts 247°
2026-04-27 11:50 11.93308 108.95320 19434 ft 404 kts 248°
2026-04-27 11:50 11.92221 108.92664 19839 ft 407 kts 248°
2026-04-27 11:50 11.91123 108.89987 20244 ft 410 kts 248°
2026-04-27 11:50 11.90015 108.87271 20648 ft 413 kts 249°
2026-04-27 11:51 11.89112 108.84493 21062 ft 415 kts 254°
2026-04-27 11:51 11.88309 108.81647 21459 ft 418 kts 255°
2026-04-27 11:51 11.86707 108.75888 21928 ft 429 kts 255°
2026-04-27 11:52 11.85875 108.72928 21939 ft 437 kts 255°
2026-04-27 11:52 11.85035 108.69944 21942 ft 438 kts 255°
2026-04-27 11:52 11.84193 108.66959 21917 ft 438 kts 255°
2026-04-27 11:52 11.83349 108.63974 21912 ft 438 kts 255°
2026-04-27 11:53 11.82509 108.60989 21908 ft 437 kts 255°
2026-04-27 11:53 11.81679 108.58003 21910 ft 438 kts 255°
2026-04-27 11:53 11.80848 108.55012 21920 ft 438 kts 255°
2026-04-27 11:53 11.80016 108.52024 21922 ft 438 kts 255°
2026-04-27 11:54 11.79182 108.49035 21926 ft 438 kts 255°
2026-04-27 11:54 11.78359 108.46091 21923 ft 438 kts 255°
2026-04-27 11:54 11.77518 108.43106 21927 ft 438 kts 255°
2026-04-27 11:54 11.76679 108.40117 21925 ft 438 kts 255°
2026-04-27 11:55 11.75830 108.37128 21920 ft 439 kts 253°
2026-04-27 11:55 11.74587 108.34289 21916 ft 440 kts 239°
2026-04-27 11:55 11.72836 108.31728 21927 ft 441 kts 235°
2026-04-27 11:55 11.71038 108.29194 21911 ft 441 kts 235°
2026-04-27 11:56 11.69247 108.26652 21908 ft 441 kts 235°
2026-04-27 11:56 11.67468 108.24108 21908 ft 441 kts 235°
2026-04-27 11:56 11.65695 108.21563 21906 ft 441 kts 236°
2026-04-27 11:56 11.63920 108.19011 21906 ft 441 kts 236°
2026-04-27 11:57 11.62149 108.16462 21905 ft 441 kts 235°
2026-04-27 11:57 11.60375 108.13910 21909 ft 441 kts 236°
2026-04-27 11:57 11.58603 108.11358 21898 ft 441 kts 235°
2026-04-27 11:57 11.56831 108.08811 21897 ft 441 kts 235°
2026-04-27 11:58 11.55057 108.06262 21896 ft 441 kts 235°
2026-04-27 11:58 11.53282 108.03714 21897 ft 441 kts 236°
2026-04-27 11:58 11.51505 108.01163 21897 ft 441 kts 236°
2026-04-27 11:58 11.49729 107.98615 21897 ft 441 kts 235°
2026-04-27 11:59 11.47952 107.96072 21897 ft 441 kts 235°
2026-04-27 11:59 11.46173 107.93522 21886 ft 441 kts 235°
2026-04-27 11:59 11.44399 107.90977 21887 ft 441 kts 235°
2026-04-27 11:59 11.42620 107.88427 21888 ft 441 kts 235°
2026-04-27 12:00 11.40844 107.85881 21883 ft 441 kts 235°
2026-04-27 12:00 11.39065 107.83331 21876 ft 441 kts 236°
2026-04-27 12:00 11.37293 107.80792 21529 ft 438 kts 235°
2026-04-27 12:00 11.35529 107.78268 21113 ft 435 kts 235°
2026-04-27 12:01 11.33780 107.75768 20508 ft 431 kts 235°
2026-04-27 12:01 11.32050 107.73290 19863 ft 426 kts 235°
2026-04-27 12:01 11.30340 107.70842 19231 ft 422 kts 235°
2026-04-27 12:01 11.28646 107.68418 18608 ft 418 kts 235°
2026-04-27 12:02 11.26972 107.66023 17979 ft 413 kts 234°
2026-04-27 12:02 11.25333 107.63678 17300 ft 409 kts 234°
2026-04-27 12:02 11.23660 107.61308 16627 ft 405 kts 232°
2026-04-27 12:02 11.21778 107.59203 15968 ft 400 kts 224°
2026-04-27 12:03 11.19793 107.57232 15339 ft 396 kts 224°
2026-04-27 12:03 11.17826 107.55285 14735 ft 392 kts 224°
2026-04-27 12:03 11.15906 107.53382 14142 ft 389 kts 224°
2026-04-27 12:03 11.14101 107.51358 13545 ft 385 kts 234°
2026-04-27 12:04 11.12657 107.49069 12897 ft 382 kts 238°
2026-04-27 12:04 11.11283 107.46764 12232 ft 380 kts 238°
2026-04-27 12:04 11.09906 107.44474 11577 ft 378 kts 238°
2026-04-27 12:04 11.08528 107.42205 10944 ft 376 kts 237°
2026-04-27 12:05 11.07146 107.39950 10313 ft 374 kts 237°
2026-04-27 12:05 11.05771 107.37713 9713 ft 372 kts 237°
2026-04-27 12:05 11.04401 107.35486 9172 ft 368 kts 237°
2026-04-27 12:05 11.03039 107.33276 9014 ft 368 kts 237°
2026-04-27 12:06 11.01875 107.30977 8909 ft 361 kts 248°
2026-04-27 12:06 11.01019 107.28637 8774 ft 344 kts 250°
2026-04-27 12:06 11.00229 107.26399 8642 ft 328 kts 250°
2026-04-27 12:06 10.99462 107.24262 8497 ft 314 kts 249°
2026-04-27 12:07 10.98723 107.22228 8357 ft 300 kts 249°
2026-04-27 12:07 10.98005 107.20264 8220 ft 296 kts 249°
2026-04-27 12:07 10.97285 107.18301 8080 ft 297 kts 249°
2026-04-27 12:07 10.96565 107.16345 7845 ft 293 kts 249°
2026-04-27 12:08 10.95852 107.14409 7552 ft 291 kts 249°
2026-04-27 12:08 10.95142 107.12480 7200 ft 291 kts 249°
2026-04-27 12:08 10.94431 107.10552 6844 ft 292 kts 249°
2026-04-27 12:08 10.93720 107.08626 6487 ft 289 kts 249°
2026-04-27 12:09 10.93016 107.06718 6103 ft 287 kts 249°
2026-04-27 12:09 10.92315 107.04823 5696 ft 285 kts 250°
2026-04-27 12:09 10.91622 107.02944 5331 ft 281 kts 251°
2026-04-27 12:09 10.90940 107.01095 4972 ft 278 kts 250°
2026-04-27 12:10 10.90261 106.99257 4598 ft 276 kts 250°
2026-04-27 12:10 10.89587 106.97433 4211 ft 275 kts 250°
2026-04-27 12:10 10.88919 106.95631 4007 ft 266 kts 249°
2026-04-27 12:10 10.88273 106.93927 3970 ft 250 kts 249°
2026-04-27 12:11 10.87658 106.92299 3972 ft 246 kts 249°
2026-04-27 12:11 10.87119 106.90660 3950 ft 241 kts 259°
2026-04-27 12:11 10.87131 106.89005 3759 ft 229 kts 279°
2026-04-27 12:11 10.87398 106.87439 3493 ft 222 kts 280°
2026-04-27 12:12 10.87682 106.85893 3116 ft 222 kts 281°
2026-04-27 12:12 10.88024 106.84361 2733 ft 221 kts 281°
2026-04-27 12:12 10.88225 106.82811 2323 ft 221 kts 268°
2026-04-27 12:12 10.88061 106.81277 2036 ft 214 kts 253°
2026-04-27 12:13 10.87641 106.79913 2021 ft 196 kts 243°
2026-04-27 12:13 10.87126 106.78638 2012 ft 195 kts 245°
2026-04-27 12:13 10.86637 106.77357 2006 ft 194 kts 245°
2026-04-27 12:13 10.86172 106.76119 1976 ft 176 kts 245°
2026-04-27 12:14 10.85760 106.75023 1775 ft 155 kts 245°
2026-04-27 12:14 10.85383 106.74024 1565 ft 149 kts 244°
2026-04-27 12:14 10.85021 106.73059 1376 ft 149 kts 244°
2026-04-27 12:14 10.84646 106.72061 1184 ft 151 kts 245°
2026-04-27 12:15 10.84273 106.71065 995 ft 151 kts 244°
2026-04-27 12:15 10.83897 106.70071 855 ft 150 kts 245°
2026-04-27 12:15 10.83542 106.69111 677 ft 143 kts 246°
2026-04-27 12:15 10.83189 106.68176 480 ft 141 kts 245°
2026-04-27 12:16 10.82840 106.67251 259 ft 139 kts 244°
2026-04-27 12:16 10.82494 106.66326 80 ft 141 kts 245°
2026-04-27 12:16 10.82164 106.65475 43 ft 108 kts 249°
2026-04-27 12:16 10.81947 106.64895 44 ft 77 kts 248°
2026-04-27 12:17 10.81773 106.64462 45 ft 48 kts 230°
2026-04-27 12:17 10.81636 106.64325 44 ft 19 kts 217°
2026-04-27 12:17 10.81512 106.64302 45 ft 20 kts 159°
2026-04-27 12:17 10.81376 106.64356 45 ft 22 kts 159°
2026-04-27 12:18 10.81246 106.64430 45 ft 23 kts 91°
2026-04-27 12:18 10.81299 106.64586 45 ft 24 kts 70°
2026-04-27 12:18 10.81359 106.64750 45 ft 25 kts 70°
2026-04-27 12:18 10.81425 106.64921 46 ft 27 kts 68°
2026-04-27 12:19 10.81493 106.65100 45 ft 28 kts 69°
2026-04-27 12:19 10.81563 106.65287 45 ft 29 kts 69°
2026-04-27 12:19 10.81552 106.65434 44 ft 25 kts 144°
2026-04-27 12:19 10.81566 106.65592 43 ft 26 kts 69°
2026-04-27 12:20 10.81631 106.65766 44 ft 27 kts 69°
2026-04-27 12:20 10.81699 106.65947 44 ft 27 kts 69°
2026-04-27 12:20 10.81676 106.66057 45 ft 21 kts 190°
2026-04-27 12:20 10.81529 106.66041 44 ft 22 kts 184°
2026-04-27 12:21 10.81382 106.66027 44 ft 16 kts 184°
2026-04-27 12:21 10.81285 106.66019 44 ft 13 kts 184°
2026-04-27 12:21 10.81191 106.66009 45 ft 14 kts 186°
2026-04-27 12:21 10.81143 106.66079 44 ft 14 kts 95°
2026-04-27 12:22 10.81123 106.66137 44 ft 8 kts 182°
2026-04-27 12:22 10.81092 106.66133 44 ft 2 kts 186°
2026-04-27 12:22 10.81090 106.66133 43 ft 0 kts 185°
2026-04-27 12:22 10.81089 106.66133 43 ft 0 kts 185°